View from above orbital plane
|
View from above satellite
|
Ground track
|
The orbit data is extracted from the following two-line orbital elements,
1 00085U 61004C 21024.95545260 .00001637 00000-0 35048-3 0 9999
2 00085 38.7773 330.2946 0394615 176.9171 183.4133 14.21574561962610
Epoch (UTC): | 24 January 2021 22:55:51 |
Eccentricity: | 0.0394615 |
inclination: | 38.7773° |
perigee height: | 536 km |
apogee height: | 1104 km |
right ascension of ascending node: | 330.2946° |
argument of perigee: | 176.9171° |
revolutions per day: | 14.21574561 |
mean anomaly at epoch: | 183.4133° |
orbit number at epoch: | 96261 |
The dashed part of the orbit path shows where the satellite is in the earth's shadow,
|
|